Weather Roundup
Issued by NWS

Home | Current Version | Previous Version | Text Only | Print | Product List | Glossary On
Versions: 1 2 3 4 5 6 7 8 9 10 11 12 13 14 15 16 17 18 19 20 21 22 23 24 25 26 27 28 29 30 31 32 33 34 35 36 37 38 39 40 41 42 43 44 45 46 47 48 49 50
000
NZUS93 KARX 021959
HRRWXR

CURRENT HOURLY OBSERVATIONS ACROSS
MUCH OF THE UPPER MISSISSIPPI VALLEY
NATIONAL WEATHER SERVICE LA CROSSE WI
300 PM CDT WED SEP 02 2015


...SOUTHEAST MINNESOTA...


CITY           SKY/WX    TMP DP  RH WIND       PRES   REMARKS
ROCHESTER      CLOUDY    81  71  71 S9        29.92F
ROCHESTER/MAYO MOCLDY    82  69  65 S3        29.92S
WINONA         CLOUDY    82  66  57 S7        29.91F
AUSTIN         PTSUNNY   84  72  65 SW13G18   29.90S
ALBERT LEA     MOSUNNY   84  70  61 SW10      29.89S
DODGE CENTER   CLOUDY    81  70  69 SW7       29.91S
PRESTON        CLOUDY    80  68  68 S12G17    29.93F
OWATONNA       MOSUNNY   82  72  69 SW3       29.89F
FARIBAULT      PTSUNNY   82  72  69 S3        29.89S
$$

...ELSEWHERE IN MINNESOTA...


CITY           SKY/WX    TMP DP  RH WIND       PRES   REMARKS
MINNEAPOLIS    CLOUDY    73  66  78 E10       29.91S
INTNL FALLS    SUNNY     82  66  58 SE7       29.91F
DULUTH         MOSUNNY   75  66  73 SE9       29.97S
RED WING       PTSUNNY   81  72  74 NE6       29.89F
REDWOOD FALLS  SUNNY     86  73  65 SE8       29.84F HX  93
MANKATO        PTSUNNY   82  72  69 SW5       29.87S
WORTHINGTON    SUNNY     82  72  69 S10       29.86F
FAIRMONT       SUNNY     84  66  54 S14       29.86F
$$

...SOUTHWEST WISCONSIN...


CITY           SKY/WX    TMP DP  RH WIND       PRES   REMARKS
LA CROSSE      MOSUNNY   87  68  52 S13       29.91F HX  90
PRAIRIE DU CHI SUNNY     85  64  48 S12       29.93F
BOSCOBEL       MOSUNNY   87  66  49 S10G18    29.95F
LONE ROCK      NOT AVBL
PLATTEVILLE    MOSUNNY   82  71  70 S10       29.99F
FORT MC COY    MOSUNNY   86  63  45 SW6       29.95F
VIROQUA          N/A     82  66  58 S10       29.97F
WIS DELLS      MOSUNNY   85  64  48 SW12      29.97S
$$

...ELSEWHERE IN WISCONSIN...


CITY           SKY/WX    TMP DP  RH WIND       PRES   REMARKS
MILWAUKEE      PTSUNNY   88  67  49 SW9       29.98F HX  91
MADISON        CLOUDY    84  67  56 S12       29.97F
GREEN BAY      PTSUNNY   85  72  65 SW8       29.94F HX  91
EAU CLAIRE     NOT AVBL
BLACK RVR FLS  NOT AVBL
MEDFORD        CLOUDY    68  67  98 NE10      29.99F
WAUSAU         PTSUNNY   78  68  71 NE10      29.95F
WIS RAPIDS     SUNNY     86  67  52 S10       29.96F
MARSHFIELD     MOSUNNY   84  66  54 SE7       29.95F
RICE LAKE      CLOUDY    66  65  94 E6        29.98F
$$

...NORTHEAST IOWA...


CITY           SKY/WX    TMP DP  RH WIND       PRES   REMARKS
DECORAH        CLOUDY    81  70  69 VRB7G13   29.94S
MASON CITY     MOSUNNY   85  71  63 SW16G28   29.91F HX  90
CHARLES CITY   PTSUNNY   84  72  65 SW14G23   29.92F
OELWEIN        MOSUNNY   82  73  74 S12G17    29.95F
$$

...ELSEWHERE IN IOWA...


CITY           SKY/WX    TMP DP  RH WIND       PRES   REMARKS
DES MOINES     MOSUNNY   88  67  49 SW14G23   29.90F HX  91
IOWA CITY      MOSUNNY   84  69  60 S10       29.98F
FORT DODGE     SUNNY     84  70  61 SW18      29.89F
$$

...NORTHERN ILLINOIS...


CITY           SKY/WX    TMP DP  RH WIND       PRES   REMARKS
CHICAGO-OHARE  PTSUNNY   88  67  49 SW13G21   29.99F HX  91
CHICAGO-MIDWAY PTSUNNY   91  68  46 W12       29.99F HX  95
MOLINE         CLOUDY    85  68  56 SW8       29.98F
ROCKFORD       CLOUDY    88  68  51 SW13      30.00F HX  91
PEORIA         PTSUNNY   90  64  42 SW9       30.00F HX  91
$$

NOTE: "FAIR" INDICATES FEW OR NO CLOUDS BELOW 12,000 FEET WITH NO
SIGNIFICANT WEATHER AND/OR OBSTRUCTIONS TO VISIBILITY. WIND
SPEEDS ARE IN MILES-PER-HOUR.



USA.gov is the U.S. government's official web portal to all federal, state and local government web resources and services.